User: anonymous   Login
Location: Young's Pond
(41.2695°N, 72.7766°W)
Time: 19:25:17
(UTC-05:00)
Language:

Spot 4 - Orbit

View from above orbital plane
View from above orbital plane
View from above satellite
View from above satellite

Ground track
Ground track

The orbit data is extracted from the following two-line orbital elements,

1 25260U 98017A   15057.21959944  .00000377  00000-0  10208-3 0  9992
2 25260 098.4285 127.9597 0012581 343.1310 016.9466 14.53193375879552
Epoch (UTC): 26 February 2015 05:16:13
Eccentricity: 0.0012581
inclination: 98.4285°
perigee height: 706 km
apogee height: 724 km
right ascension of ascending node: 127.9597°
argument of perigee: 343.1310°
revolutions per day: 14.53193375
mean anomaly at epoch: 16.9466°
orbit number at epoch: 87955

The dashed part of the orbit path shows where the satellite is in the earth's shadow,  

DLR